RADUGA 2 [-]

Last updated on Tue Jun 27 2023 00:03:02 GMT+0000 (Coordinated Universal Time)

1 09416U 76092A 23176.95398382 -.00000126 00000+0 00000+0 0 9998 2 09416 6.2736 285.4361 0025623 8.8195 44.2621 1.00249295118432

Satellite not in orbit

RADUGA 2 [-]